FACT

Cape Town International Airport

Airport
ICAO code
FACT
IATA Code
CPT
Summary
ICAO Region
AFI
ICAO Territory
Location

, Western Cape

Serving
Cape Town
Elevation
151 ft
Coordinates
33° 57' 53" S , 18° 36' 6" E
Metar
FACT 251400Z 19012KT 9999 FEW030 18/11 Q1029 NOSIG

Runways

Designator Length Width Surface Rops
16/34 1701 46 ASP Yes/Yes
1/19 3201 61 ASP Yes/Yes

Airport map

Aerial View

SKYbrary Partners:

Safety knowledge contributed by: